Flag for India Weather past 2 weeks in Robertsganj, Uttar Pradesh, India

Now
95 °F

Scattered clouds.


Feels Like: 110 °F
Forecast: 77 / 83 °F
Wind: 8 mph from Northwest

Location: Varanasi / Babatpur

Current Time: Jul 30, 2015 at 4:26:49 PM

Latest Report: Jul 30, 2015 at 3:00 PM


Visibility: 4 mi

Pressure: 29.53 "Hg

Humidity: 56%

Dew point: 77 °F

Location of RobertsganjLocation

Historic Weather in Robertsganj — Graph

°F

Robertsganj temperature yesterday

Maximum temperature yesterday: 95 °F (at 3:00 PM)
Minimum temperature yesterday: 82 °F (at 4:00 AM)
Average temperature yesterday: 89 °F

Past Weeks' High & Low Weather Summary

 TemperatureHumidityPressure
High99 °F (Jul 27, 4:00 PM)100% (Jul 16, 6:00 AM)29.65 "Hg (Jul 16, 6:00 AM)
Low77 °F (Jul 16, 9:00 AM)45% (Jul 23, 4:00 AM)29.33 "Hg (Jul 15, 6:00 PM)
Average86 °F77%29.53 "Hg
* Reported Jul 15 3:00 PM — Jul 30 3:00 PM, Robertsganj, Weather by CustomWeather, © 2015

Note: Actual official high and low records may vary slightly from our data, if they occured in-between our weather recording intervals... More about our weather records

Advertising

Robertsganj weather history for previous 24 hours

 ConditionsComfort  
Time TempWeatherWind HumidityBarometerVisibility
3:00 PM
Thu, Jul 30
95 °FScattered clouds.8 mph56%29.53 "Hg4 mi
2:00 PM93 °FScattered clouds.9 mph59%29.56 "Hg4 mi
1:00 PM93 °FScattered clouds.9 mph59%29.56 "Hg4 mi
12:00 PM91 °FScattered clouds.8 mph63%29.56 "Hg4 mi
11:00 AM90 °FScattered clouds.10 mph67%29.59 "Hg4 mi
9:00 AM88 °FScattered clouds.7 mph66%29.59 "Hg3 mi
8:00 AM84 °FHaze.2 mph74%29.59 "Hg3 mi
7:00 AM84 °FHaze.3 mph74%29.59 "Hg3 mi
6:00 AM82 °FHaze.3 mph74%29.56 "Hg3 mi
5:00 AM82 °FHaze.7 mph74%29.56 "Hg3 mi
12:00 AM84 °FHaze.6 mph74%29.56 "Hg3 mi
10:00 PM
Wed, Jul 29
88 °FHaze.3 mph66%29.56 "Hg3 mi
9:00 PM88 °FPassing clouds.2 mph70%29.53 "Hg3 mi
7:00 PM90 °FScattered clouds.No wind67%29.53 "Hg4 mi
6:00 PM91 °FPassing clouds.2 mph63%29.50 "Hg4 mi
5:00 PM91 °FScattered clouds.7 mph56%29.50 "Hg4 mi
4:00 PM95 °FScattered clouds.7 mph47%29.50 "Hg4 mi
Weather by CustomWeather, © 2015

See weather overviewHow to use our weather pages